Terminal Aerodrome Forecast
Issued by NWS Quad Cities IA IL

Home | Current Version | Previous Version | Text Only | Print | Product List | Glossary On
Versions: 1 2 3 4 5 6 7 8 9 10 11 12 13 14 15 16 17 18 19
000
FTUS43 KDVN 131100
TAFDBQ
TAF
KDBQ 131136Z 1312/1412 21005KT P6SM VCSH SCT005 BKN090
     FM131600 02010KT 1 1/2SM -RA BR OVC008
     FM140100 34015G25KT 2SM -RA BR OVC004
     FM140900 33022G29KT 3SM -RASN BR OVC010=

USA.gov is the U.S. government's official web portal to all federal, state and local government web resources and services.